星链-11160 [DTC] (STARLINK-11160 [DTC] )

导读

STARLINK-11160是美国SpaceX公司发射的第二代星链星座卫星,于北京时间2024年6月24日08:00发射升空,属于星链低轨互联网星座的组成部分,运行在近地轨道。星链星座旨在为全球提供高速宽带互联网服务,该卫星进一步扩充了星座规模,助力提升全球网络覆盖能力,是SpaceX推进星链组网部署的重要环节,目前已正常在轨运行。

基本信息
目录编号:
60125
目录名称:
STARLINK-11160
国际标识:
2024-118N
轨道中心:
EARTH
卫星名称:
星链-11160 [DTC]
卫星全名:
星链-11160 [DTC] (STARLINK-11160 [DTC] )
卫星状态:
在轨 (已飞行809 天)
发射日期:
2024-06-24 UTC
国别 :
美国 (US)
星等 :
--
该卫星已列入 空间交会检测服务 Space Conjunction Data Service (SCDS) ,当前飞行风险评估等级: 无高风险
轨道信息
数据来源 国际轨道数据
星历时间: 2026-09-10T23:20:29+0800
17小时前
查看轨道信息
半长轴: 6737.836km
偏心率: 0.0000492
轨道倾角: 53.159°
近地点辐角 96.919°
升交点赤经 29.383°
平近点角 263.188°
近地点: 359.367km
远地点: 360.031km
周期: 91.736分钟
每日圈数: 15.6972
详细信息
固有亮度:
5
最大亮度:
0.3
卫星平台:
Starlink v2.0 mini
覆盖范围:
全球
运营商:
太空探索技术公司
运营商所在国:
美国
制造商(研发单位):
太空探索技术公司
制造商所在国:
美国
使用方式:
暂无
卫星简介
星链(Starlink)计划是由太空探索技术公司(SpaceX)提出的一个巨型低轨卫星互联网星座项目,计划在2019年至2024年间在太空搭建由约1.2万颗卫星组成的“星链”网络,其中1584颗将部署在地球上空550千米处的近地轨道,并从2020年开始工作。该卫星仍在工作。
2D轨道图
3D轨道图
轨道高度分析图
轨道倾角分析图
轨道综合分析图
查看轨道综合分析图
与全量物体交会距离演化趋势
与全量物体交会风险概率演化趋势